User: anonymous
Location: Unspecified
(0.0000°N, 0.0000°E)
Time: 05:58:51
(UTC+00:00)
Language:

NOAA 17 - Orbit

View from above orbital plane
View from above orbital plane
View from above satellite
View from above satellite

Ground track
Ground track

The orbit data is extracted from the following two-line orbital elements,

1 27453U 02032A   14273.46377462  .00000261  00000-0  12963-3 0  7546
2 27453 098.3209 267.6659 0011111 219.8964 140.1400 14.24782798637670
Epoch (UTC): 30 September 2014 11:07:50
Eccentricity: 0.0011111
inclination: 98.3209°
perigee height: 801 km
apogee height: 817 km
right ascension of ascending node: 267.6659°
argument of perigee: 219.8964°
revolutions per day: 14.24782798
mean anomaly at epoch: 140.1400°
orbit number at epoch: 63767

The dashed part of the orbit path shows where the satellite is in the earth's shadow,  

DLR